Weather History for Colima, Mexico

Change the Weather History Date:

Tuesday, March 19, 2013

  Actual Average Record
Temperature  
Mean Temperature 80 °F -  
Max Temperature 95 °F 84 °F 95 °F (2013)
Min Temperature 64 °F 67 °F 55 °F (2003)
Cooling Degree Days 14    
Growing Degree Days 30 (Base 50)    
Moisture  
Dew Point 57 °F    
Average Humidity 48    
Maximum Humidity 84    
Minimum Humidity 21    
Precipitation  
Precipitation 0.00 in - - ()
Sea Level Pressure  
Sea Level Pressure 29.96 in    
Wind  
Wind Speed 7 mph ()    
Max Wind Speed 17 mph    
Max Gust Speed -    
Visibility 7.3 miles    
Events      
Averages and records for this station are not official NWS values.
T = Trace of Precipitation, MM = Missing Value Source: Averaged Metar Reports

Daily Weather History Graph

Daily Weather History Graph

Search for Another Location

Airport:

Trip Planner

Search our weather history database for the weather conditions in past years. The results will help you decide how hot, cold, wet, or windy it might be!

Date:

Astronomy

Mar. 19, 2013 Rise Set
Actual Time 6:58 AM CST 7:05 PM CST
Civil Twilight 6:37 AM CST 7:27 PM CST
Nautical Twilight 6:11 AM CST 7:52 PM CST
Astronomical Twilight 5:46 AM CST 8:18 PM CST
Moon 12:34 PM CST 1:10 AM CST
Length of Visible Light 12h 49m
Length of Day
12h 06m
Waxing Crescent, 50% of the Moon is Illuminated
Mar 19
Waxing Crescent
Mar 27
Full
Apr 2
Last Quarter
Apr 10
New
Apr 18
First Quarter

Hourly Weather History & Observations

Time (CST) Temp. Heat Index Dew Point Humidity Pressure Visibility Wind Dir Wind Speed Gust Speed Precip Events Conditions
5:50 AM 67 °F - 53 °F 50% 29.92 in 6 mi NE 2.2 mph - -   Haze
6:01 AM 69.8 °F - 51.8 °F 53% 29.98 in 8.0 mi North 17.3 mph - N/A   Clear
6:46 AM 69.8 °F - 51.8 °F 53% 30.01 in 8.0 mi North 17.3 mph - N/A   Clear
7:51 AM 73.4 °F - 50.0 °F 44% 30.01 in 8.0 mi Calm Calm - N/A   Clear
8:40 AM 74 °F - 52 °F 36% 29.98 in 6 mi East 4.5 mph - -   Haze
8:43 AM 75.2 °F - 51.8 °F 44% 30.04 in 8.0 mi North 17.3 mph - N/A   Clear
9:50 AM 78.8 °F - 51.8 °F 39% 30.06 in 8.0 mi North 11.5 mph - N/A   Scattered Clouds
10:45 AM 80.6 °F 80.3 °F 53.6 °F 39% 30.03 in 8.0 mi Calm Calm - N/A   Scattered Clouds
11:40 AM 89 °F - 54 °F 21% 29.94 in 6 mi SW 4.5 mph - -   Haze
11:51 AM 86.0 °F 84.2 °F 53.6 °F 33% 30.01 in 8.0 mi SSW 6.9 mph - N/A   Clear
12:41 PM 86.0 °F - 51.8 °F 31% 29.99 in 8.0 mi SW 11.5 mph - N/A   Scattered Clouds
1:49 PM 86.0 °F - 51.8 °F 31% 29.96 in 8.0 mi SSW 11.5 mph - N/A   Scattered Clouds
2:44 PM 86.0 °F 86.1 °F 60.8 °F 43% 29.92 in 8.0 mi West 11.5 mph - N/A   Scattered Clouds
2:53 PM 91 °F - 68 °F 38% 29.83 in 6 mi SE 11.2 mph - -   Haze
3:51 PM 84.2 °F 85.6 °F 64.4 °F 51% 29.90 in 8.0 mi SW 11.5 mph - N/A   Scattered Clouds
4:44 PM 80.6 °F 81.8 °F 62.6 °F 54% 29.90 in 8.0 mi WSW 11.5 mph - N/A   Scattered Clouds
5:43 PM 78.8 °F - 55.4 °F 44% 29.93 in 8.0 mi SW 11.5 mph - N/A   Scattered Clouds
5:50 PM 84 °F - 64 °F 40% 29.83 in 6 mi South 6.7 mph - -   Haze
6:42 PM 77.0 °F - 55.4 °F 47% 29.94 in 8.0 mi SW 11.5 mph - N/A   Scattered Clouds
7:46 PM 73.4 °F - 60.8 °F 65% 29.98 in 8.0 mi West 6.9 mph - N/A   Clear
8:49 PM 74 °F - 68 °F 77% 29.91 in 5 mi West 4.5 mph - -   Haze
8:50 PM 71.6 °F - 62.6 °F 73% 30.01 in 8.0 mi Calm Calm - N/A   Clear
9:40 PM 73.4 °F - 59.0 °F 61% 30.02 in 8.0 mi Calm Calm - N/A   Clear
11:48 PM 70 °F - 66 °F 84% 29.94 in 5 mi East 2.2 mph - -   Haze